When you browse on this site, cookies collect data to enhance your experience and personalize the content and advertising you see.
Visit our Privacy Policy to learn more. By continuing to use the site, you agree to this use of cookies and data.
  • In France
  • List of Countries
  • For 7 days
  • Water Temperature
  • Satellite Maps
  • Weather Map
  • Weather Widgets
  • user-avatar
    Login

    Hourly Weather Starotatyshevo

    Today, 19 November, Monday

    Time Temperature Precipitation Wind Pressure Humidity
    00:00 -2°C° 0 mm 2 mps 760 mmHg 80%
    01:00 -2°C° 0 mm 2 mps 760 mmHg 83%
    02:00 -2°C° 0 mm 2 mps 760 mmHg 84%
    03:00 -2°C° 0 mm 2 mps 760 mmHg 86%
    04:00 -2°C° 0 mm 2 mps 760 mmHg 86%
    05:00 -2°C° 0 mm 2 mps 760 mmHg 87%
    06:00 -2°C° 0 mm 2 mps 760 mmHg 88%
    07:00 -2°C° 0 mm 2 mps 760 mmHg 89%
    08:00 -2°C° 0.1 mm 2 mps 760 mmHg 89%
    09:00 -1°C° 0.1 mm 2 mps 761 mmHg 89%
    10:00 -1°C° 0 mm 3 mps 760 mmHg 89%
    11:00 -1°C° 0.1 mm 2 mps 760 mmHg 89%
    12:00 -1°C° 0.1 mm 2 mps 761 mmHg 89%
    13:00 -1°C° 0.1 mm 2 mps 761 mmHg 89%
    14:00 -1°C° 0.2 mm 2 mps 761 mmHg 91%
    15:00 -1°C° 0.2 mm 2 mps 761 mmHg 93%
    16:00 +1°C° 0.2 mm 1 mps 761 mmHg 95%
    17:00 +1°C° 0.2 mm 1 mps 761 mmHg 95%
    18:00 +1°C° 0.2 mm 1 mps 761 mmHg 96%
    19:00 +1°C° 0.2 mm 1 mps 761 mmHg 96%
    20:00 +1°C° 0.1 mm 1 mps 761 mmHg 96%
    21:00 0°C° 0.1 mm 1 mps 761 mmHg 96%
    22:00 0°C° 0.1 mm 1 mps 760 mmHg 96%
    23:00 0°C° 0.1 mm 1 mps 760 mmHg 97%

    Tomorrow, 20 November, Tuesday

    Time Temperature Precipitation Wind Pressure Humidity
    00:00 -1°C° 0.1 mm 0 mps 760 mmHg 97%
    01:00 -1°C° 0.1 mm 0 mps 760 mmHg 97%
    02:00 -1°C° 0.1 mm 0 mps 760 mmHg 97%
    03:00 -1°C° 0.1 mm 0 mps 760 mmHg 97%
    04:00 -1°C° 0.1 mm 0 mps 760 mmHg 97%
    05:00 0°C° 0.1 mm 1 mps 760 mmHg 97%
    06:00 0°C° 0.1 mm 1 mps 760 mmHg 97%
    07:00 0°C° 0.1 mm 1 mps 760 mmHg 96%
    08:00 0°C° 0 mm 1 mps 760 mmHg 96%
    09:00 0°C° 0 mm 1 mps 760 mmHg 95%
    10:00 0°C° 0 mm 1 mps 760 mmHg 94%
    11:00 +1°C° 0 mm 1 mps 759 mmHg 93%
    12:00 +1°C° 0 mm 1 mps 759 mmHg 92%
    13:00 +1°C° 0 mm 1 mps 759 mmHg 91%
    14:00 +1°C° 0 mm 1 mps 759 mmHg 92%
    15:00 +1°C° 0 mm 1 mps 759 mmHg 93%
    16:00 0°C° 0 mm 1 mps 758 mmHg 93%
    17:00 0°C° 0 mm 1 mps 758 mmHg 93%
    18:00 0°C° 0 mm 1 mps 758 mmHg 94%
    19:00 -2°C° 0 mm 2 mps 758 mmHg 94%
    20:00 -2°C° 0 mm 2 mps 757 mmHg 93%
    21:00 -4°C° 0 mm 3 mps 757 mmHg 92%
    22:00 -4°C° 0 mm 3 mps 756 mmHg 91%
    23:00 -4°C° 0 mm 3 mps 756 mmHg 90%

    Day after tomorrow, 21 November, Wednesday

    Time Temperature Precipitation Wind Pressure Humidity
    00:00 -4°C° 0 mm 3 mps 755 mmHg 89%
    01:00 -4°C° 0 mm 4 mps 755 mmHg 88%
    02:00 -4°C° 0 mm 4 mps 754 mmHg 86%
    03:00 -6°C° 0 mm 5 mps 754 mmHg 83%
    04:00 -6°C° 0 mm 5 mps 753 mmHg 81%
    05:00 -6°C° 0 mm 5 mps 752 mmHg 83%
    06:00 -6°C° 0 mm 5 mps 752 mmHg 84%
    07:00 -7°C° 0 mm 5 mps 751 mmHg 85%
    08:00 -6°C° 0.3 mm 6 mps 750 mmHg 86%
    09:00 -6°C° 0.3 mm 6 mps 750 mmHg 88%
    10:00 -6°C° 0.3 mm 6 mps 749 mmHg 89%
    11:00 -6°C° 0.5 mm 6 mps 748 mmHg 89%
    12:00 -6°C° 0.5 mm 6 mps 748 mmHg 90%
    13:00 -5°C° 0.5 mm 6 mps 747 mmHg 90%
    14:00 -5°C° 0.3 mm 5 mps 746 mmHg 90%
    15:00 -5°C° 0.3 mm 5 mps 746 mmHg 90%
    16:00 -5°C° 0.3 mm 5 mps 746 mmHg 90%
    17:00 -5°C° 0.2 mm 5 mps 746 mmHg 88%
    18:00 -5°C° 0.2 mm 6 mps 745 mmHg 86%
    19:00 -6°C° 0.2 mm 6 mps 745 mmHg 83%
    20:00 -6°C° 0 mm 6 mps 745 mmHg 84%
    21:00 -8°C° 0 mm 6 mps 746 mmHg 85%
    22:00 -8°C° 0 mm 5 mps 746 mmHg 86%
    23:00 -8°C° 0.1 mm 5 mps 746 mmHg 84%

    22 November, Thursday

    Time Temperature Precipitation Wind Pressure Humidity
    00:00 -8°C° 0.1 mm 5 mps 746 mmHg 82%
    01:00 -8°C° 0.1 mm 5 mps 747 mmHg 80%
    02:00 -8°C° 0 mm 4 mps 747 mmHg 83%
    03:00 -9°C° 0 mm 4 mps 747 mmHg 85%
    04:00 -9°C° 0 mm 4 mps 747 mmHg 88%
    05:00 -10°C° 0 mm 4 mps 747 mmHg 88%
    06:00 -10°C° 0 mm 4 mps 746 mmHg 89%
    07:00 -11°C° 0 mm 4 mps 746 mmHg 89%
    08:00 -11°C° 0 mm 5 mps 746 mmHg 89%
    09:00 -11°C° 0 mm 5 mps 745 mmHg 89%
    10:00 -10°C° 0 mm 6 mps 745 mmHg 89%
    11:00 -10°C° 0.1 mm 6 mps 744 mmHg 88%
    12:00 -9°C° 0.1 mm 6 mps 743 mmHg 88%
    13:00 -9°C° 0.1 mm 6 mps 742 mmHg 87%
    14:00 -8°C° 0.3 mm 7 mps 742 mmHg 88%
    15:00 -8°C° 0.3 mm 7 mps 741 mmHg 89%
    16:00 -8°C° 0.3 mm 7 mps 740 mmHg 90%
    17:00 -8°C° 0.3 mm 7 mps 740 mmHg 89%
    18:00 -7°C° 0.3 mm 7 mps 739 mmHg 89%
    19:00 -7°C° 0.3 mm 7 mps 739 mmHg 89%
    20:00 -8°C° 0.1 mm 7 mps 739 mmHg 88%
    21:00 -9°C° 0.1 mm 7 mps 740 mmHg 87%
    22:00 -10°C° 0.1 mm 6 mps 740 mmHg 86%
    23:00 -11°C° 0 mm 6 mps 741 mmHg 84%

    23 November, Friday

    Time Temperature Precipitation Wind Pressure Humidity
    00:00 -12°C° 0 mm 6 mps 741 mmHg 82%
    01:00 -12°C° 0 mm 6 mps 742 mmHg 79%
    02:00 -14°C° 0 mm 6 mps 743 mmHg 79%
    03:00 -14°C° 0 mm 5 mps 744 mmHg 79%
    04:00 -15°C° 0 mm 5 mps 745 mmHg 78%
    05:00 -15°C° 0 mm 5 mps 746 mmHg 81%
    06:00 -17°C° 0 mm 5 mps 747 mmHg 83%
    07:00 -16°C° 0 mm 4 mps 747 mmHg 86%
    08:00 -16°C° 0 mm 4 mps 748 mmHg 87%
    09:00 -16°C° 0 mm 4 mps 749 mmHg 87%
    10:00 -15°C° 0 mm 4 mps 750 mmHg 88%
    11:00 -15°C° 0 mm 4 mps 750 mmHg 87%
    12:00 -14°C° 0 mm 4 mps 751 mmHg 87%
    13:00 -13°C° 0 mm 5 mps 751 mmHg 87%
    14:00 -12°C° 0 mm 4 mps 752 mmHg 87%
    15:00 -12°C° 0 mm 4 mps 752 mmHg 88%
    16:00 -12°C° 0 mm 4 mps 753 mmHg 88%
    17:00 -12°C° 0 mm 3 mps 753 mmHg 88%
    18:00 -12°C° 0 mm 3 mps 754 mmHg 89%
    19:00 -12°C° 0 mm 3 mps 754 mmHg 89%
    20:00 -14°C° 0 mm 4 mps 755 mmHg 89%
    21:00 -14°C° 0 mm 4 mps 755 mmHg 89%
    22:00 -15°C° 0 mm 4 mps 755 mmHg 89%
    23:00 -15°C° 0 mm 4 mps 755 mmHg 89%

    24 November, Saturday

    Time Temperature Precipitation Wind Pressure Humidity
    00:00 -14°C° 0 mm 4 mps 755 mmHg 89%
    01:00 -14°C° 0 mm 5 mps 755 mmHg 89%
    02:00 -14°C° 0 mm 5 mps 755 mmHg 89%
    03:00 -14°C° 0 mm 6 mps 755 mmHg 89%
    04:00 -12°C° 0 mm 6 mps 755 mmHg 89%
    05:00 -13°C° 0 mm 7 mps 754 mmHg 88%
    06:00 -13°C° 0 mm 7 mps 754 mmHg 87%
    07:00 -12°C° 0 mm 8 mps 753 mmHg 86%
    08:00 -12°C° 0 mm 8 mps 753 mmHg 85%
    09:00 -12°C° 0 mm 9 mps 752 mmHg 83%
    10:00 -12°C° 0 mm 9 mps 752 mmHg 81%
    11:00 -11°C° 0.1 mm 9 mps 751 mmHg 82%
    12:00 -11°C° 0.1 mm 9 mps 751 mmHg 82%
    13:00 -10°C° 0.1 mm 9 mps 750 mmHg 82%
    14:00 -10°C° 0.1 mm 9 mps 750 mmHg 82%
    15:00 -9°C° 0.1 mm 9 mps 750 mmHg 82%
    16:00 -9°C° 0.1 mm 9 mps 749 mmHg 82%
    17:00 -9°C° 0.1 mm 9 mps 749 mmHg 83%
    18:00 -8°C° 0.1 mm 9 mps 750 mmHg 84%
    19:00 -8°C° 0.1 mm 9 mps 750 mmHg 85%
    20:00 -8°C° 0.1 mm 9 mps 750 mmHg 85%
    21:00 -7°C° 0.1 mm 8 mps 750 mmHg 86%
    22:00 -6°C° 0.1 mm 8 mps 750 mmHg 87%
    23:00 -7°C° 0 mm 7 mps 751 mmHg 87%
    Show more